This is the latest recevied weather packets stored in our database for station/object N3DOU-1. If no packets are shown the sender has not sent any weather packets the latest 10 day(s).
| Time | Temp. | Humidity | Pressure | Rain* | Wind** | Luminosity | Snow |
|---|---|---|---|---|---|---|---|
| 1777507883 | 11.67° C | 87% | 1008.4 hPa | 1.27 mm | - | - | - |
| 1777506984 | 12.22° C | 87% | 1008.8 hPa | 1.52 mm | - | - | - |
| 1777506084 | 12.22° C | 86% | 1008.9 hPa | 2.29 mm | - | - | - |
| 1777505184 | 12.78° C | 85% | 1008.9 hPa | 1.78 mm | - | - | - |
| 1777504285 | 12.78° C | 84% | 1009 hPa | 1.27 mm | - | - | - |
| 1777502484 | 13.33° C | 82% | 1009.3 hPa | 0.25 mm | - | - | - |
| 1777501586 | 13.89° C | 81% | 1008.8 hPa | 0.25 mm | - | - | - |
| 1777500683 | 14.44° C | 79% | 1009 hPa | 0.25 mm | - | - | - |
| 1777499784 | 14.44° C | 77% | 1009.2 hPa | 0.25 mm | - | - | - |
| 1777498885 | 15° C | 77% | 1009.2 hPa | 0.25 mm | - | - | - |
| 1777497984 | 15° C | 78% | 1009 hPa | 0.25 mm | - | - | - |
| 1777497086 | 15.56° C | 78% | 1008.9 hPa | 0.25 mm | - | - | - |
| 1777496184 | 16.11° C | 75% | 1009.1 hPa | 0 mm | - | - | - |
| 1777495284 | 16.67° C | 70% | 1009.6 hPa | 0 mm | - | - | - |
| 1777494383 | 17.22° C | 66% | 1009.6 hPa | 0 mm | - | - | - |
| 1777493483 | 17.78° C | 65% | 1009.6 hPa | 0 mm | - | - | - |
| 1777492583 | 18.33° C | 62% | 1009.8 hPa | 0 mm | - | - | - |
| 1777491686 | 18.89° C | 62% | 1010.1 hPa | 0 mm | - | - | - |
| 1777490785 | 18.33° C | 62% | 1010.5 hPa | 0 mm | - | - | - |
| 1777489884 | 18.33° C | 61% | 1011.2 hPa | 0 mm | - | - | - |
| 1777488984 | 18.33° C | 60% | 1011.6 hPa | 0 mm | - | - | - |
| 1777488084 | 18.33° C | 61% | 1011.9 hPa | 0 mm | - | - | - |
| 1777487188 | 17.78° C | 61% | 1012 hPa | 0 mm | - | - | - |
| 1777486284 | 17.22° C | 58% | 1012.3 hPa | 0 mm | - | - | - |
| 1777485383 | 16.67° C | 62% | 1012.6 hPa | 0 mm | - | - | - |
* Rain latest hour (hover to see other rain measurements)
** Current wind speed in m/s (hover to see current wind gust speed)